Terminal Aerodrome Forecast
Issued by NWS

Home | Current Version | Previous Version | Text Only | Print | Product List | Glossary On
Versions: 1 2 3 4 5 6 7 8 9 10 11 12 13 14 15 16 17 18 19 20 21 22 23 24 25 26 27 28 29 30 31 32
000
FTUS45 KGJT 301303 AAA
TAFTEX
TAF AMD
KTEX 301303Z 3013/0112 00000KT P6SM VCSH OVC020
      TEMPO 3013/3014 2SM BR BKN002
     FM301800 27003KT P6SM VCSH BKN030
     FM302100 36004KT P6SM VCSH SCT030 BKN050
     FM010600 16003KT P6SM BKN100
     FM011000 13005KT P6SM -SHSN OVC040=

USA.gov is the U.S. government's official web portal to all federal, state and local government web resources and services.